Terug naar catalogus

STARLINK-4564

ActiefCommunicatieVLEO
NORAD 53560·PAYLOAD·🇺🇸 United States

Gelanceerd Aug 19, 2022 vanaf Cape Canaveral Space Force Station

Loading…

Volgende Passages (komende 24 uur)

TLE

VersSource: CelesTrak SupGP

Epoch: Sep 14, 2026, 20:37 UTC

1 53560C 22101AK  26257.85951389  .00029641  00000+0  95316-3 0  2570
2 53560  53.1565 276.0554 0001202  89.3761 167.4591 15.31687815    13

Volg STARLINK-4564 in realtime met AllMySat

Download on the App Store